Regional Weather Roundup
Issued by NWS

Home | Current Version | Previous Version | Text Only | Print | Product List | Glossary On
Versions: 1 2 3 4 5 6 7 8 9 10 11 12 13 14 15 16 17 18 19 20 21 22 23 24 25 26 27 28 29 30 31 32 33 34 35 36 37 38 39 40 41 42 43 44 45 46 47 48 49 50
000
ASCA44 KEWX 260120
RWRMX

LATIN AMERICA AND CARIBBEAN REGIONAL WEATHER ROUNDUP
NATIONAL WEATHER SERVICE AUSTIN/SAN ANTONIO TX
800 PM CDT WED MAY 25 2016

NOTE: "FAIR" INDICATED FEW OR NO CLOUDS BELOW 12,000 FEET WITH NO
SIGNIFICANT WEATHER AND/OR OBSTRUCTIONS TO VISIBILITY.

BAJA CALIFORNIA

CITY           SKY/WX    TMP DP  RH WIND       PRES   REMARKS
LORETO         PTSUNNY   79  61  53 CALM      29.92F
LA PAZ         CLOUDY    82  50  32 SW12      29.97S
MEXICALI       SUNNY     77  36  22 W23       29.89S BLWGDUST
S.J. DEL CABO  PTSUNNY   81  68  65 S5        29.97F
TIJUANA        PTSUNNY   63  46  55 W16       30.11S

NORTHWESTERN MEXICO

CITY           SKY/WX    TMP DP  RH WIND       PRES   REMARKS
CULIACAN       CLOUDY    88  70  55 SW9       29.92F HX  92
DURANGO        CLOUDY    84  30  14 NW13      30.24R
GUAYMAS        SUNNY     82  55  39 SW10      29.89S
HERMOSILLO     SUNNY     91  34  13 SW17      29.94S
CD. JUAREZ     SUNNY     90  37  15 W23       29.88R BLWGDUST
LOS MOCHIS     CLOUDY    84  57  39 W9        29.95F
OBREGON        MOSUNNY   88  43  20 S8        29.92S

NORTHEASTERN MEXICO

CITY           SKY/WX    TMP DP  RH WIND       PRES   REMARKS
CHIHUAHUA      CLOUDY    82  41  23 SW23      30.08R
MATAMOROS      CLOUDY    84  77  79 SE7       29.94R HX  94
MONCLOVA         N/A    N/A N/A N/A MISG        N/A
MONTERREY      LGT RAIN  81  73  78 N3        29.98R
NUEVO LAREDO   CLOUDY    90  77  66 CALM      29.90S HX 102
PIEDRAS NEGRAS   N/A    N/A N/A N/A MISG        N/A
REYNOSA        CLOUDY    82  72  69 SE5       29.94R
SALTILLO       LGT RAIN  70  63  78 N6        30.22R
TORREON        MOCLDY    95  39  14 NW18      30.02R HX  91
CD. VICTORIA   CLOUDY    86  75  70 NE9       29.92R HX  95

WESTERN MEXICO

CITY           SKY/WX    TMP DP  RH WIND       PRES   REMARKS
AGUASCALIENTES PTCLDY    88  25  10 S7        30.19S
COLIMA         CLEAR     82  61  47 SW7       30.03R
DEL BAJIO      MOCLDY    84  48  28 SW13      30.22R
GUADALAJARA    PTCLDY    90  32  12 W13       30.12F
MANZANILLO     CLEAR     79  73  83 W14       29.86R
MAZATLAN       MOCLDY    84  73  70 W6        29.90F HX  91
P. VALLARTA    CLEAR     82  75  78 SW6       29.93R
URUAPAN          N/A    N/A N/A N/A MISG        N/A
ZACATECAS      MOCLDY    84  32  15 W15       30.26R

CENTRAL MEXICO

CITY           SKY/WX    TMP DP  RH WIND       PRES   REMARKS
CUERNAVACA       N/A    N/A N/A N/A MISG        N/A
MEXICO CITY    TSTM      68  54  60 SE12      30.37R
MORELIA        MOCLDY    81  55  41 S12       30.22R
POZA RICA      CLEAR     88  79  74 E12       29.88F HX 102
PUEBLA         MOCLDY    75  45  33 E16       30.34R
QUERETARO      MOCLDY    86  48  26 NE16      30.24F
S. LUIS POTOSI PTCLDY    82  54  36 E15       30.18R
TAMPICO        MOCLDY    84  79  84 SE14      29.88S HX  96
TOLUCA         MOCLDY    72  46  40 S10       30.44R

SOUTHERN MEXICO

CITY           SKY/WX    TMP DP  RH WIND       PRES   REMARKS
ACAPULCO       PTCLDY    86  77  74 W10       29.85S HX  97
B. DE HUATULCO   N/A    N/A N/A N/A MISG        N/A
OAXACA         MOCLDY    84  43  23 SE16      30.19R
P. ESCONDIDO     N/A    N/A N/A N/A MISG        N/A
VERACRUZ       PTCLDY    86  81  84 E10       29.86R HX 102
ZIHUATANEJO    CLEAR     86  73  66 W6        29.88S HX  93

YUCATAN PENINSULA

CITY           SKY/WX    TMP DP  RH WIND       PRES   REMARKS
CAMPECHE       PTCLDY    90  81  74 N12G23    29.85R HX 108
CANCUN         PTCLDY    84  77  79 E9        30.00S HX  94
CHETUMAL       PTCLDY    86  75  70 E12       29.96R HX  95
CD. DEL CARMEN CLEAR     86  77  74 N13       29.86S HX  97
COZUMEL        PTCLDY    79  77  94 E7        30.00R
MERIDA         MOCLDY    90  72  55 NE12      29.92R HX  96
MINATITLAN     CLEAR     86  68  54 N12       29.81R
TAPACHULA      MOCLDY    88  81  79 W12       29.84R HX 105
TUX. GUTIERREZ PTCLDY    91  66  43 NW13      29.87R HX  94
VILLAHERMOSA   CLEAR     88  77  70 CALM      29.86S HX 100

CENTRAL AMERICA

CITY           SKY/WX    TMP DP  RH WIND       PRES   REMARKS

CARIBBEAN

CITY           SKY/WX    TMP DP  RH WIND       PRES   REMARKS
ARUBA          PTCLDY    82  75  78 E18       29.92S
CURACAO        PTCLDY    82  73  74 E15       29.94S
KINGSTON       PTCLDY    86  73  66 E10       29.97R HX  93
NASSAU         MOCLDY    77  72  83 N16       30.12R
SAN JUAN       PTCLDY    81  72  74 E6        30.05R
SANTO DOMINGO  MOCLDY    73  72  94 CALM      30.00S
ST. CROIX      PTCLDY    79  72  78 NE7       30.05
ST. KITTS      PTCLDY    79  72  78 E8        30.03R
ST. MAARTEN    PTCLDY    81  70  69 E9        30.03S
ST. THOMAS     CLEAR     81  70  69 E8        30.04

$$





USA.gov is the U.S. government's official web portal to all federal, state and local government web resources and services.